Weather in Mutki

Turkey     38°24′35″N   41°55′06″E
temp.,
°C
wind,
m/s
gust,
m/s
humid.,
%
clouds,
%
prec.,
mm/h
press.,
hPa
HPBL,
m
18 january, mon
mon1800:00−1s31298100 14.8 1008854
03:00−1s41098100 25.8 1008553
06:00−1s4998100 2.9 1009604
09:00−1ssw51098100 4.9 1010841
12:00−2ssw91495100 1.3 10121177
15:00−2ssw71396100 5.4 10121085
18:00−3ssw6119795 2.1 1015708
21:00−3s7149798 6.6 10151094
19 january, tue
tue1900:00−3ssw71597100 7.7 10171208
03:00−3ssw4998100 13.1 1018621
06:00−4s3697100 5.5 1018387
09:00−4sw1197100 10.6 1017123
12:00−4nw2297100 7.5 1015147
15:00−5nnw1196100 19.3 1012135
18:00−5nnw1197100 3.9 101522
21:00−6nne1197100 6.8 101623
20 january, wed
wed2000:00−6n119799 4.8 101740
03:00−7ene119799 6.4 101762
06:00−8nne1197100 1.3 101830
09:00−9nnw2296100 2.1 101875
12:00−7nnw2294100 0.5 1017188
15:00−7nnw2395100 1.1 1016211
18:00−10nnw2398100 0.1 102043
21:00−13n2298100 0.2 102225
21 january, thu
thu2100:00−17n239294 0.0 102523
03:00−19nne228447 0.0 102722
06:00−21nne23830 0.0 103022
09:00−19nne22810 0.0 103332
12:00−15n22820 0.0 1033112
15:00−14nne22890 0.0 103382
18:00−18ne22870 0.0 103620
21:00−18ne22790 0.0 103820
22 january, fri
fri2200:00−18ne22800 0.0 103920
03:00−18ne22940 0.0 103921
06:00−17ne22995 0.0 103922
09:00−15nne22967 0.0 103935
12:00−11nne229524 0.0 1036117
15:00−11nne229549 0.0 103384
18:00−15ne229542 0.0 103421
21:00−15ne229226 0.0 103420